| time (UTC) | temp C | wind direction | speed KPH | gust KPH | rain 1hr cm | rain 24hr cm | rain mn cm | humidity % | barometer mb |
| 20260505091147 | 14 | 66 | 1.6 | 14.5 | 0.00 | 0.00 | 0.00 | 73 | 1012.4 |
| 20260505090644 | 13 | 39 | 3.2 | 4.8 | 0.00 | 0.00 | 0.00 | 73 | 1012.6 |
| 20260505090142 | 13 | 141 | 0.0 | 4.8 | 0.00 | 0.00 | 0.00 | 73 | 1012.5 |
| 20260505085639 | 13 | 104 | 4.8 | 6.4 | 0.00 | 0.00 | 0.00 | 73 | 1012.6 |
| 20260505085137 | 14 | 225 | 1.6 | 4.8 | 0.00 | 0.00 | 0.00 | 71 | 1012.5 |
| 20260505084635 | 14 | 193 | 0.0 | 4.8 | 0.00 | 0.00 | 0.00 | 70 | 1012.5 |
| 20260505084133 | 15 | 149 | 3.2 | 4.8 | 0.00 | 0.00 | 0.00 | 66 | 1012.5 |
| 20260505083630 | 15 | 24 | 4.8 | 6.4 | 0.00 | 0.00 | 0.00 | 61 | 1012.4 |
| 20260505083126 | 15 | 99 | 3.2 | 4.8 | 0.00 | 0.00 | 0.00 | 61 | 1012.4 |
| 20260505082622 | 15 | 301 | 3.2 | 6.4 | 0.00 | 0.00 | 0.00 | 61 | 1012.4 |
| 20260505082120 | 15 | 63 | 1.6 | 9.7 | 0.00 | 0.00 | 0.00 | 65 | 1012.4 |
| 20260505081615 | 13 | 26 | 8.0 | 8.0 | 0.00 | 0.00 | 0.00 | 73 | 1012.2 |
| 20260505081114 | 12 | 15 | 3.2 | 4.8 | 0.00 | 0.00 | 0.00 | 80 | 1012.2 |
| 20260505080609 | 12 | 112 | 1.6 | 3.2 | 0.00 | 0.00 | 0.00 | 82 | 1012.1 |
| 20260505080106 | 12 | 24 | 3.2 | 3.2 | 0.00 | 0.00 | 0.00 | 82 | 1011.8 |
| 20260505075602 | 12 | 176 | 0.0 | 3.2 | 0.00 | 0.00 | 0.00 | 83 | 1011.8 |
| 20260505075059 | 12 | 91 | 1.6 | 3.2 | 0.00 | 0.00 | 0.00 | 83 | 1011.6 |
| 20260505074556 | 12 | 131 | 0.0 | 3.2 | 0.00 | 0.00 | 0.00 | 83 | 1011.5 |
| 20260505074053 | 13 | 86 | 0.0 | 3.2 | 0.00 | 0.00 | 0.00 | 83 | 1011.5 |
| 20260505073550 | 13 | 80 | 3.2 | 4.8 | 0.00 | 0.00 | 0.00 | 82 | 1011.3 |
| 20260505073049 | 13 | 304 | 0.0 | 3.2 | 0.00 | 0.00 | 0.00 | 84 | 1011.4 |
| 20260505072549 | 13 | 43 | 1.6 | 3.2 | 0.00 | 0.00 | 0.00 | 84 | 1011.2 |
| 20260505072046 | 12 | 72 | 1.6 | 3.2 | 0.00 | 0.00 | 0.00 | 85 | 1011.3 |
| 20260505071541 | 13 | 70 | 0.0 | 3.2 | 0.00 | 0.00 | 0.00 | 85 | 1011.1 |
| 20260505071040 | 13 | 61 | 3.2 | 3.2 | 0.00 | 0.00 | 0.00 | 85 | 1010.8 |
| 20260505070537 | 13 | 75 | 3.2 | 3.2 | 0.00 | 0.00 | 0.00 | 84 | 1011.0 |
| 20260505070033 | 13 | 31 | 3.2 | 3.2 | 0.00 | 0.00 | 0.00 | 84 | 1010.8 |
| 20260505065529 | 13 | 66 | 0.0 | 3.2 | 0.00 | 0.00 | 0.00 | 85 | 1011.0 |
| 20260505065026 | 13 | 50 | 0.0 | 3.2 | 0.00 | 0.00 | 0.00 | 84 | 1010.8 |
| 20260505064522 | 13 | 50 | 0.0 | 1.6 | 0.00 | 0.00 | 0.00 | 84 | 1011.0 |
| 20260505064021 | 13 | 51 | 1.6 | 3.2 | 0.00 | 0.00 | 0.00 | 84 | 1011.2 |
| 20260505063518 | 13 | 137 | 1.6 | 3.2 | 0.00 | 0.00 | 0.00 | 84 | 1010.9 |
| 20260505063014 | 13 | 67 | 0.0 | 3.2 | 0.00 | 0.00 | 0.00 | 84 | 1010.9 |
| 20260505062511 | 13 | 40 | 3.2 | 3.2 | 0.00 | 0.00 | 0.00 | 84 | 1010.8 |
| 20260505062008 | 13 | 55 | 0.0 | 3.2 | 0.00 | 0.00 | 0.00 | 83 | 1010.8 |
| 20260505061506 | 13 | 68 | 1.6 | 3.2 | 0.00 | 0.00 | 0.00 | 83 | 1010.9 |
| 20260505061003 | 13 | 80 | 1.6 | 3.2 | 0.00 | 0.00 | 0.00 | 83 | 1010.7 |
| 20260505060500 | 13 | 75 | 3.2 | 3.2 | 0.00 | 0.00 | 0.00 | 83 | 1010.7 |
| 20260505055956 | 14 | 60 | 3.2 | 3.2 | 0.00 | 0.00 | 0.00 | 82 | 1010.5 |
| 20260505055452 | 14 | 47 | 1.6 | 3.2 | 0.00 | 0.00 | 0.00 | 82 | 1010.6 |
| 20260505054949 | 14 | 69 | 0.0 | 3.2 | 0.00 | 0.00 | 0.00 | 81 | 1010.5 |
| 20260505054447 | 14 | 58 | 1.6 | 4.8 | 0.00 | 0.00 | 0.00 | 81 | 1010.5 |
| 20260505053944 | 14 | 64 | 3.2 | 3.2 | 0.00 | 0.00 | 0.00 | 81 | 1010.5 |
| 20260505053441 | 15 | 103 | 0.0 | 3.2 | 0.00 | 0.00 | 0.00 | 80 | 1010.4 |
| 20260505052938 | 15 | 105 | 0.0 | 1.6 | 0.00 | 0.00 | 0.00 | 79 | 1010.4 |
| 20260505052435 | 15 | 43 | 0.0 | 3.2 | 0.00 | 0.00 | 0.00 | 79 | 1010.4 |
| 20260505051932 | 15 | 9 | 0.0 | 3.2 | 0.00 | 0.00 | 0.00 | 78 | 1010.4 |
| 20260505051429 | 15 | 55 | 1.6 | 3.2 | 0.00 | 0.00 | 0.00 | 78 | 1010.1 |
| 20260505050927 | 15 | 31 | 0.0 | 3.2 | 0.00 | 0.00 | 0.00 | 77 | 1010.0 |
| 20260505050425 | 15 | 79 | 1.6 | 3.2 | 0.00 | 0.00 | 0.00 | 76 | 1010.2 |
| 20260505041353 | 17 | 50 | 0.0 | 3.2 | 0.00 | 0.00 | 0.00 | 69 | 1009.7 |
| 20260505040850 | 17 | 40 | 1.6 | 3.2 | 0.00 | 0.00 | 0.00 | 67 | 1009.7 |
| 20260505040347 | 17 | 44 | 1.6 | 1.6 | 0.00 | 0.00 | 0.00 | 67 | 1009.7 |
| 20260505035844 | 17 | 28 | 0.0 | 3.2 | 0.00 | 0.00 | 0.00 | 66 | 1009.7 |
| 20260505035340 | 17 | 62 | 0.0 | 3.2 | 0.00 | 0.00 | 0.00 | 65 | 1009.5 |
| 20260505034837 | 18 | 60 | 0.0 | 3.2 | 0.00 | 0.00 | 0.00 | 66 | 1009.5 |
| 20260505034334 | 18 | 103 | 0.0 | 3.2 | 0.00 | 0.00 | 0.00 | 64 | 1009.4 |
| 20260505033831 | 18 | 38 | 0.0 | 3.2 | 0.00 | 0.00 | 0.00 | 63 | 1009.4 |
| 20260505033328 | 18 | 39 | 0.0 | 3.2 | 0.00 | 0.00 | 0.00 | 63 | 1009.5 |
| 20260505032826 | 19 | 25 | 0.0 | 3.2 | 0.00 | 0.00 | 0.00 | 61 | 1009.2 |
| 20260505032322 | 19 | 51 | 1.6 | 3.2 | 0.00 | 0.00 | 0.00 | 61 | 1009.3 |
| 20260505031820 | 20 | 0 | 0.0 | 3.2 | 0.00 | 0.00 | 0.00 | 59 | 1009.3 |
| 20260505031316 | 20 | 41 | 0.0 | 3.2 | 0.00 | 0.00 | 0.00 | 59 | 1009.3 |
| 20260505030813 | 20 | 17 | 0.0 | 3.2 | 0.00 | 0.00 | 0.00 | 57 | 1009.3 |
| 20260505030310 | 20 | 2 | 1.6 | 3.2 | 0.00 | 0.00 | 0.00 | 56 | 1009.4 |
| 20260505025804 | 20 | 11 | 1.6 | 3.2 | 0.00 | 0.00 | 0.00 | 55 | 1009.4 |
| 20260505025304 | 21 | 0 | 0.0 | 1.6 | 0.00 | 0.00 | 0.00 | 54 | 1009.4 |
| 20260505024801 | 21 | 344 | 1.6 | 3.2 | 0.00 | 0.00 | 0.00 | 53 | 1009.3 |
| 20260505024258 | 21 | 12 | 0.0 | 3.2 | 0.00 | 0.00 | 0.00 | 50 | 1009.5 |
| 20260505023755 | 22 | 359 | 0.0 | 3.2 | 0.00 | 0.00 | 0.00 | 50 | 1009.3 |
| 20260505023252 | 22 | 57 | 0.0 | 1.6 | 0.00 | 0.00 | 0.00 | 45 | 1009.3 |
| 20260505022749 | 23 | 343 | 0.0 | 6.4 | 0.00 | 0.00 | 0.00 | 40 | 1009.5 |
| 20260505022246 | 23 | 275 | 4.8 | 8.0 | 0.00 | 0.00 | 0.00 | 39 | 1009.5 |
| 20260505021743 | 23 | 62 | 1.6 | 3.2 | 0.00 | 0.00 | 0.00 | 42 | 1009.5 |
| 20260505021240 | 23 | 9 | 1.6 | 3.2 | 0.00 | 0.00 | 0.00 | 38 | 1009.7 |
| 20260505020735 | 23 | 326 | 0.0 | 3.2 | 0.00 | 0.00 | 0.00 | 37 | 1009.8 |
| 20260505020231 | 23 | 318 | 4.8 | 8.0 | 0.00 | 0.00 | 0.00 | 37 | 1009.7 |
| 20260505015728 | 23 | 9 | 3.2 | 4.8 | 0.00 | 0.00 | 0.00 | 37 | 1009.9 |
| 20260505015225 | 23 | 311 | 4.8 | 4.8 | 0.00 | 0.00 | 0.00 | 37 | 1009.8 |
| 20260505014722 | 23 | 336 | 3.2 | 3.2 | 0.00 | 0.00 | 0.00 | 36 | 1009.8 |
| 20260505014220 | 23 | 324 | 4.8 | 4.8 | 0.00 | 0.00 | 0.00 | 37 | 1010.0 |
| 20260505013716 | 23 | 111 | 0.0 | 9.7 | 0.00 | 0.00 | 0.00 | 37 | 1009.9 |
| 20260505013213 | 23 | 312 | 3.2 | 6.4 | 0.00 | 0.00 | 0.00 | 37 | 1010.1 |
| 20260505012712 | 23 | 303 | 4.8 | 9.7 | 0.00 | 0.00 | 0.00 | 37 | 1010.0 |
| 20260505012209 | 23 | 38 | 3.2 | 6.4 | 0.00 | 0.00 | 0.00 | 37 | 1010.0 |
| 20260505011704 | 23 | 319 | 3.2 | 4.8 | 0.00 | 0.00 | 0.00 | 37 | 1010.0 |
| 20260505011202 | 24 | 235 | 0.0 | 1.6 | 0.00 | 0.00 | 0.00 | 37 | 1009.9 |
| 20260505010657 | 24 | 272 | 0.0 | 4.8 | 0.00 | 0.00 | 0.00 | 38 | 1010.0 |
| 20260505010154 | 23 | 281 | 1.6 | 4.8 | 0.00 | 0.00 | 0.00 | 39 | 1009.9 |
| 20260505005650 | 24 | 245 | 3.2 | 4.8 | 0.00 | 0.00 | 0.00 | 37 | 1010.0 |
| 20260505005147 | 24 | 225 | 4.8 | 4.8 | 0.00 | 0.00 | 0.00 | 38 | 1010.0 |
| 20260505004644 | 25 | 50 | 0.0 | 4.8 | 0.00 | 0.00 | 0.00 | 37 | 1010.0 |
| 20260505004140 | 25 | 125 | 6.4 | 6.4 | 0.00 | 0.00 | 0.00 | 39 | 1009.9 |
| 20260505003638 | 24 | 125 | 4.8 | 14.5 | 0.00 | 0.00 | 0.00 | 38 | 1010.1 |
| 20260505003135 | 25 | 301 | 6.4 | 6.4 | 0.00 | 0.00 | 0.00 | 39 | 1010.0 |
| 20260505002631 | 26 | 286 | 1.6 | 3.2 | 0.00 | 0.00 | 0.00 | 38 | 1010.0 |
| 20260505002130 | 26 | 326 | 3.2 | 6.4 | 0.00 | 0.00 | 0.00 | 37 | 1010.0 |
| 20260505001626 | 26 | 129 | 3.2 | 6.4 | 0.00 | 0.00 | 0.00 | 37 | 1010.1 |
| 20260505001124 | 26 | 55 | 0.0 | 3.2 | 0.00 | 0.00 | 0.00 | 38 | 1010.3 |
| 20260505000621 | 26 | 325 | 1.6 | 4.8 | 0.00 | 0.00 | 0.00 | 37 | 1010.1 |
| 20260505000119 | 26 | 42 | 1.6 | 6.4 | 0.00 | 0.00 | 0.00 | 37 | 1010.2 |
| 20260504235615 | 26 | 120 | 3.2 | 9.7 | 0.00 | 0.00 | 0.00 | 39 | 1010.3 |
| 20260504235112 | 27 | 125 | 8.0 | 8.0 | 0.00 | 0.00 | 0.00 | 37 | 1010.1 |
| 20260504234609 | 27 | 10 | 3.2 | 6.4 | 0.00 | 0.00 | 0.00 | 37 | 1010.1 |
| 20260504234106 | 26 | 319 | 0.0 | 4.8 | 0.00 | 0.00 | 0.00 | 38 | 1010.3 |
| 20260504233601 | 26 | 350 | 3.2 | 4.8 | 0.00 | 0.00 | 0.00 | 38 | 1010.2 |
| 20260504233058 | 26 | 129 | 0.0 | 9.7 | 0.00 | 0.00 | 0.00 | 37 | 1010.1 |
| 20260504232555 | 27 | 321 | 3.2 | 6.4 | 0.00 | 0.00 | 0.00 | 37 | 1010.1 |
| 20260504232053 | 27 | 140 | 1.6 | 6.4 | 0.00 | 0.00 | 0.00 | 35 | 1010.3 |
| 20260504231549 | 27 | 19 | 0.0 | 6.4 | 0.00 | 0.00 | 0.00 | 36 | 1010.3 |
| 20260504231045 | 27 | 350 | 4.8 | 4.8 | 0.00 | 0.00 | 0.00 | 36 | 1010.3 |
| 20260504230541 | 27 | 29 | 3.2 | 8.0 | 0.00 | 0.00 | 0.00 | 34 | 1010.4 |
| 20260504230041 | 28 | 49 | 6.4 | 6.4 | 0.00 | 0.00 | 0.00 | 33 | 1010.4 |
| 20260504225537 | 27 | 147 | 3.2 | 3.2 | 0.00 | 0.00 | 0.00 | 37 | 1010.4 |
| 20260504225034 | 28 | 200 | 0.0 | 3.2 | 0.00 | 0.00 | 0.00 | 36 | 1010.6 |
| 20260504224531 | 29 | 237 | 4.8 | 4.8 | 0.00 | 0.00 | 0.00 | 34 | 1010.6 |
| 20260504224028 | 28 | 89 | 0.0 | 3.2 | 0.00 | 0.00 | 0.00 | 34 | 1010.7 |
| 20260504223525 | 27 | 348 | 0.0 | 3.2 | 0.00 | 0.00 | 0.00 | 36 | 1010.7 |
| 20260504223021 | 27 | 78 | 1.6 | 3.2 | 0.00 | 0.00 | 0.00 | 35 | 1010.5 |
| 20260504222518 | 27 | 234 | 4.8 | 6.4 | 0.00 | 0.00 | 0.00 | 37 | 1010.8 |
| 20260504222015 | 27 | 235 | 1.6 | 6.4 | 0.00 | 0.00 | 0.00 | 36 | 1010.5 |
| 20260504221512 | 27 | 304 | 1.6 | 3.2 | 0.00 | 0.00 | 0.00 | 36 | 1010.6 |
| 20260504221009 | 27 | 72 | 1.6 | 6.4 | 0.00 | 0.00 | 0.00 | 32 | 1010.8 |
| 20260504220505 | 27 | 219 | 3.2 | 4.8 | 0.00 | 0.00 | 0.00 | 34 | 1010.9 |
| 20260504220002 | 26 | 223 | 0.0 | 3.2 | 0.00 | 0.00 | 0.00 | 36 | 1010.9 |
| 20260504215459 | 26 | 214 | 0.0 | 3.2 | 0.00 | 0.00 | 0.00 | 36 | 1010.9 |
| 20260504214956 | 26 | 67 | 4.8 | 6.4 | 0.00 | 0.00 | 0.00 | 38 | 1010.9 |
| 20260504214452 | 25 | 286 | 1.6 | 6.4 | 0.00 | 0.00 | 0.00 | 39 | 1011.1 |
| 20260504213949 | 26 | 112 | 0.0 | 4.8 | 0.00 | 0.00 | 0.00 | 40 | 1010.9 |
| 20260504213445 | 25 | 88 | 0.0 | 3.2 | 0.00 | 0.00 | 0.00 | 42 | 1010.9 |
| 20260504212943 | 25 | 102 | 1.6 | 6.4 | 0.00 | 0.00 | 0.00 | 41 | 1010.8 |
| 20260504212438 | 25 | 100 | 1.6 | 6.4 | 0.00 | 0.00 | 0.00 | 40 | 1011.1 |
| 20260504211936 | 25 | 96 | 1.6 | 4.8 | 0.00 | 0.00 | 0.00 | 40 | 1011.1 |
| 20260504211432 | 25 | 95 | 0.0 | 4.8 | 0.00 | 0.00 | 0.00 | 42 | 1011.1 |
| 20260504210930 | 25 | 80 | 1.6 | 6.4 | 0.00 | 0.00 | 0.00 | 40 | 1011.2 |
| 20260504210426 | 25 | 61 | 3.2 | 4.8 | 0.00 | 0.00 | 0.00 | 39 | 1011.0 |
| 20260504205924 | 25 | 246 | 1.6 | 3.2 | 0.00 | 0.00 | 0.00 | 39 | 1011.3 |
| 20260504205421 | 24 | 95 | 4.8 | 6.4 | 0.00 | 0.00 | 0.00 | 42 | 1011.2 |
| 20260504204919 | 23 | 85 | 3.2 | 6.4 | 0.00 | 0.00 | 0.00 | 42 | 1011.3 |
| 20260504204417 | 23 | 244 | 4.8 | 6.4 | 0.00 | 0.00 | 0.00 | 42 | 1011.2 |
| 20260504203916 | 25 | 256 | 3.2 | 6.4 | 0.00 | 0.00 | 0.00 | 40 | 1011.2 |
| 20260504203413 | 25 | 262 | 0.0 | 3.2 | 0.00 | 0.00 | 0.00 | 39 | 1011.2 |
| 20260504202909 | 25 | 234 | 1.6 | 3.2 | 0.00 | 0.00 | 0.00 | 41 | 1011.2 |
| 20260504202406 | 24 | 80 | 3.2 | 4.8 | 0.00 | 0.00 | 0.00 | 43 | 1011.4 |
| 20260504201903 | 24 | 104 | 3.2 | 3.2 | 0.00 | 0.00 | 0.00 | 43 | 1011.3 |
| 20260504201400 | 23 | 54 | 3.2 | 8.0 | 0.00 | 0.00 | 0.00 | 42 | 1011.5 |
| 20260504200857 | 23 | 234 | 1.6 | 4.8 | 0.00 | 0.00 | 0.00 | 42 | 1011.6 |
| 20260504200354 | 23 | 214 | 0.0 | 4.8 | 0.00 | 0.00 | 0.00 | 44 | 1011.6 |
| 20260504195851 | 23 | 238 | 3.2 | 6.4 | 0.00 | 0.00 | 0.00 | 43 | 1011.4 |
| 20260504195346 | 22 | 54 | 3.2 | 6.4 | 0.00 | 0.00 | 0.00 | 46 | 1011.5 |
| 20260504194843 | 22 | 274 | 3.2 | 6.4 | 0.00 | 0.00 | 0.00 | 47 | 1011.4 |
| 20260504194339 | 23 | 68 | 6.4 | 6.4 | 0.00 | 0.00 | 0.00 | 44 | 1011.3 |
| 20260504193835 | 23 | 255 | 1.6 | 6.4 | 0.00 | 0.00 | 0.00 | 47 | 1011.5 |
| 20260504193332 | 22 | 261 | 1.6 | 4.8 | 0.00 | 0.00 | 0.00 | 48 | 1011.5 |
| 20260504192831 | 22 | 234 | 3.2 | 6.4 | 0.00 | 0.00 | 0.00 | 49 | 1011.5 |
| 20260504192329 | 21 | 67 | 3.2 | 4.8 | 0.00 | 0.00 | 0.00 | 49 | 1011.6 |
| 20260504191827 | 21 | 102 | 4.8 | 4.8 | 0.00 | 0.00 | 0.00 | 48 | 1011.3 |
| 20260504191324 | 21 | 53 | 4.8 | 6.4 | 0.00 | 0.00 | 0.00 | 49 | 1011.6 |
| 20260504190819 | 21 | 112 | 4.8 | 8.0 | 0.00 | 0.00 | 0.00 | 51 | 1011.6 |
| 20260504190316 | 22 | 113 | 3.2 | 8.0 | 0.00 | 0.00 | 0.00 | 52 | 1011.5 |
| 20260504185813 | 22 | 119 | 0.0 | 3.2 | 0.00 | 0.00 | 0.00 | 48 | 1011.6 |
| 20260504185310 | 21 | 106 | 4.8 | 6.4 | 0.00 | 0.00 | 0.00 | 52 | 1011.5 |
| 20260504184806 | 21 | 59 | 3.2 | 6.4 | 0.00 | 0.00 | 0.00 | 54 | 1011.6 |
| 20260504184301 | 21 | 76 | 0.0 | 4.8 | 0.00 | 0.00 | 0.00 | 54 | 1011.6 |
| 20260504183757 | 21 | 245 | 3.2 | 3.2 | 0.00 | 0.00 | 0.00 | 52 | 1011.7 |
| 20260504183254 | 20 | 79 | 1.6 | 6.4 | 0.00 | 0.00 | 0.00 | 53 | 1011.5 |
| 20260504182753 | 20 | 62 | 1.6 | 6.4 | 0.00 | 0.00 | 0.00 | 57 | 1011.5 |
| 20260504182249 | 20 | 54 | 3.2 | 4.8 | 0.00 | 0.00 | 0.00 | 55 | 1011.6 |
| 20260504181747 | 20 | 67 | 3.2 | 4.8 | 0.00 | 0.00 | 0.00 | 57 | 1011.8 |
| 20260504181244 | 20 | 68 | 4.8 | 6.4 | 0.00 | 0.00 | 0.00 | 58 | 1011.6 |
| 20260504180743 | 20 | 85 | 3.2 | 6.4 | 0.00 | 0.00 | 0.00 | 55 | 1011.5 |
| 20260504180241 | 20 | 62 | 0.0 | 4.8 | 0.00 | 0.00 | 0.00 | 57 | 1011.5 |
| 20260504175739 | 19 | 44 | 0.0 | 3.2 | 0.00 | 0.00 | 0.00 | 56 | 1011.6 |
| 20260504175235 | 19 | 188 | 1.6 | 3.2 | 0.00 | 0.00 | 0.00 | 57 | 1011.5 |
| 20260504174733 | 18 | 64 | 3.2 | 4.8 | 0.00 | 0.00 | 0.00 | 60 | 1011.4 |
| 20260504174231 | 18 | 95 | 3.2 | 4.8 | 0.00 | 0.00 | 0.00 | 62 | 1011.7 |
| 20260504173727 | 18 | 102 | 3.2 | 6.4 | 0.00 | 0.00 | 0.00 | 62 | 1011.7 |
| 20260504173224 | 18 | 114 | 4.8 | 6.4 | 0.00 | 0.00 | 0.00 | 61 | 1011.7 |
| 20260504172721 | 18 | 79 | 3.2 | 3.2 | 0.00 | 0.00 | 0.00 | 64 | 1011.8 |
| 20260504172217 | 18 | 133 | 4.8 | 4.8 | 0.00 | 0.00 | 0.00 | 63 | 1011.5 |
| 20260504171714 | 18 | 103 | 0.0 | 4.8 | 0.00 | 0.00 | 0.00 | 65 | 1011.6 |
| 20260504171211 | 17 | 184 | 1.6 | 3.2 | 0.00 | 0.00 | 0.00 | 64 | 1011.6 |
| 20260504170708 | 17 | 121 | 4.8 | 6.4 | 0.00 | 0.00 | 0.00 | 69 | 1011.6 |
| 20260504170205 | 17 | 67 | 0.0 | 3.2 | 0.00 | 0.00 | 0.00 | 69 | 1011.4 |
| 20260504160124 | 14 | 87 | 1.6 | 6.4 | 0.00 | 0.00 | 0.00 | 79 | 1011.6 |
| 20260504151051 | 12 | 160 | 0.0 | 3.2 | 0.00 | 0.00 | 0.00 | 81 | 1011.4 |
| 20260504150548 | 11 | 68 | 3.2 | 3.2 | 0.00 | 0.00 | 0.00 | 83 | 1011.4 |
| 20260504141014 | 11 | 33 | 3.2 | 4.8 | 0.00 | 0.00 | 0.00 | 82 | 1011.0 |
| 20260504140511 | 11 | 41 | 3.2 | 3.2 | 0.00 | 0.00 | 0.00 | 81 | 1011.1 |
| 20260504130435 | 11 | 40 | 3.2 | 3.2 | 0.00 | 0.00 | 0.00 | 81 | 1010.4 |
| 20260504110322 | 12 | 61 | 1.6 | 3.2 | 0.00 | 0.00 | 0.00 | 78 | 1010.4 |
| 20260504100240 | 12 | 35 | 1.6 | 3.2 | 0.00 | 0.00 | 0.00 | 75 | 1010.2 |